Location: Ottawa
(45.4170°N, 75.7000°W)
Time: 01:47:02
(UTC-04:00)

Iridium 91 - Visible Passes

Search period start: 23 July 2014 00:00
Search period end: 02 August 2014 00:00
Orbit: 775 x 780 km, 86.4° (Epoch: 22 July)

Date Brightness Start Highest point End Pass type
(mag) Time Alt. Az. Time Alt. Az. Time Alt. Az.
24 Jul 8.2 04:33:19 10° SE 04:37:05 21° E 04:40:52 10° NNE visible
25 Jul 8.5 04:02:14 10° E 04:03:57 12° ENE 04:05:40 10° NE visible
26 Jul 6.6 05:05:21 10° SSE 05:10:21 50° E 05:15:23 10° NNE visible
27 Jul 7.6 04:32:37 10° SE 04:37:01 29° E 04:41:26 10° NNE visible
28 Jul 8.2 04:00:37 10° ESE 04:03:48 17° ENE 04:07:00 10° NE visible
29 Jul 5.9 05:05:14 10° S 05:10:24 72° E 05:15:36 10° N visible
30 Jul 6.9 04:32:11 10° SSE 04:36:59 40° E 04:41:50 10° NNE visible
31 Jul 7.8 03:59:41 10° SE 04:03:42 23° E 04:07:43 10° NNE visible
01 Aug 8.3 03:28:11 10° ESE 03:30:32 13° ENE 03:32:53 10° NE visible
01 Aug 5.5 05:05:17 10° S 05:10:29 82° W 05:15:44 10° N visible
